Location: LDNL
(36.4545°S, 141.6685°E)
Time: 10:53:00
(UTC+10:00)

A-11 Canister half - Pass Details

Date: 10 August 2022
Orbit: 1524 x 1684 km, 47.3° (Epoch: 26 September)

Event Time Altitude Azimuth Distance (km) Brightness Sun altitude
Rises 22:01:43 0° 248° (WSW) 4,691 12.2 -49.4°
Reaches altitude 10° 22:04:58 10° 241° (WSW) 3,714 11.5 -50.0°
Enters shadow 22:09:39 30° 222° (SW) 2,493 10.3 -50.8°
Maximum altitude 22:13:54 46° 169° (S) 1,998 - -51.6°
Drops below altitude 10° 22:23:01 10° 97° (E) 3,791 - -53.3°
Sets 22:26:22 0° 91° (E) 4,795 - -53.9°
